STARLINK-32306, 61520

Orbit data source: Space-Track

STARLINK-32306, 61520 is a payload satellite owned by SpaceX/Seattle (US) in LEO that was launched on Tue, 15 Oct 2024 UTC via an FALCON 9 launch vehicle from the Air Force Eastern Test Range (AFETR). Payload-class satellites include a variety of spacecraft equipped with specific instruments for various scientific and technological missions. These include communications satellites like Starlink; space stations such as the ISS; scientific satellites like the Hubble; Earth observation satellites from companies like Planet Labs, Umbra, and HawkEye 360; GPS; miniature CubeSats for education and research; and military/defense satellites.

Loading next visibility...
Identifier
61520, 2024-183M
Orbit
LEO
Country
Flag of USUS
Related business
Manufacturer
SpaceX/Seattle
Mission
Operational Commercial Communications
Bus & Motor
STARLINK V2M, Unknown motor
Mass
730 kg wet, ~700 kg dry
Launch date (UTC)
2024-10-15 (1 year ago)
Launch vehicle
FALCON 9
Launch site
Air Force Eastern Test Range (AFETR)
Object type
Payload
Rocket body
Debris
Shape & HBR
Box + 2 Pan, 17.7 m
Radar Cross Section
33.884 m², Large (>1 m²)

Expand to show TLE details & history
Last TLE update: 12 hours ago

TLE from 12 hours ago
0 STARLINK-32306
1 61520U 24183M   25346.94131676 -.00001199  00000-0 -28371-4 0  9996
2 61520  53.1612 185.1832 0001419  30.6095 329.4988 15.30197113 66376
Epoch: 2025-12-12T22:35Z
TLE epoch observation values (Epoch: 2025-12-12T22:35:29.768Z)
Latitude
-0.00003°
Longitude
124.43343°
Altitude
475.286 km
Speed
7.63 km/s
True Right ascension
12h 20m 43s
True Declination
0° 00' 00"
Sunlit
Object was in daylight at epoch
Visualization orbit readout
Latitude
Unknown
Longitude
Unknown
Altitude
Unknown
Speed
Unknown
Apparent Right ascension
Unknown
Apparent Declination
Unknown
Sunlit
N/A
Visualization observer readout
Local Sidereal Time
09:18:48
Azimuth
Unknown
Elevation
Unknown
Doppler factor
Unknown
Orbital elements
Apogee altitude
476.452 km
Perigee altitude
474.507 km
Semi-major axis
6,853.617 km
Eccentricity
0.00014
Inclination
53.1612°
RAAN
185.1832°
Arg. of periapsis
30.6095°
True anomaly
329.49055°
Mean anomaly
329.4988°
Eccentric anomaly
329.49467°
Mean motion
3.82528 °/min
Orbital period
94.11 mins
BSTAR
-0.000028371
Loading maneuver chart data...
Computing Atmospheric mass density...
Loading historical data...
Loading historical data...
Loading historical data...
Loading historical data...
Loading historical data...
Loading historical data...
Loading historical data...

Documentation

Showing up to 5 results
|